Location: *
(51.2167°N, 10.0667°E)
Time: 09:06:12
(UTC+00:00)

Cosmos 2322 Rocket - Pass Details

Date: 12 December 2019
Orbit: 831 x 852 km, 71.0° (Epoch: 21 January)

Event Time Altitude Azimuth Distance (km) Brightness Sun altitude
Rises 17:09:23 0° 281° (W) 3,391 6.5 -17.2°
Reaches altitude 10° 17:13:09 10° 306° (NW) 2,463 5.1 -17.8°
Maximum altitude 17:16:01 14° 337° (NNW) 2,198 4.5 -18.2°
Drops below altitude 10° 17:18:54 10° 8° (N) 2,475 4.4 -18.6°
Enters shadow 17:19:49 - 15° (NNE) 2,657 4.5 -18.8°
